Simultaneous Nadir Overpasses (SNOs) Predictions

Prediction of SNOs between NOAA-19 and METOP-C Satellite Orbit:

Table of predicted SNOs for the next 14.0 days since TLE Epoch: 12/18/2022
Index Date (NOAA-19) Time (NOAA-19) Lat,Lon (NOAA-19) SZA (NOAA-19 ) Date (METOP-C) Time (METOP-C) Lat,Lon (METOP-C) SZA (METOP-C ) Distance(km) Time Diff (sec)
1 12/18/2022 06:38:29 -80.92, -64.99 74.14 12/18/2022 06:39:36 -80.92, -64.82 74.10 2.91 67
2 12/18/2022 07:29:24 80.92, 102.37 105.87 12/18/2022 07:30:18 80.91, 102.34 105.88 1.01 54
3 12/18/2022 08:20:28 -80.92, -90.27 74.12 12/18/2022 08:20:58 -80.91, -90.31 74.12 0.94 30
4 12/18/2022 09:11:23 80.92, 77.09 105.89 12/18/2022 09:11:39 80.92, 77.21 105.91 2.15 16
5 12/18/2022 10:02:27 -80.92,-115.55 74.10 12/18/2022 10:02:19 -80.92,-115.44 74.09 2.07 8
6 12/18/2022 10:53:22 80.92, 51.80 105.91 12/18/2022 10:53:01 80.91, 51.72 105.89 1.50 21
7 12/18/2022 11:44:26 -80.91,-140.83 74.08 12/18/2022 11:43:41 -80.91,-140.93 74.11 1.67 45
8 12/18/2022 12:35:21 80.91, 26.52 105.93 12/18/2022 12:34:22 80.92, 26.59 105.92 1.65 59
9 12/29/2022 14:37:13 -80.92, 175.60 74.42 12/29/2022 14:38:24 -80.92, 175.56 74.40 0.83 71
10 12/29/2022 15:28:08 80.92, -17.42 105.56 12/29/2022 15:29:06 80.92, -17.25 105.59 3.02 58
11 12/29/2022 16:19:13 -80.92, 149.93 74.44 12/29/2022 16:19:46 -80.91, 150.06 74.42 2.35 33
12 12/29/2022 17:10:06 80.92, -42.34 105.60 12/29/2022 17:10:27 80.93, -42.39 105.61 1.26 21
13 12/29/2022 18:01:12 -80.92, 124.64 74.43 12/29/2022 18:01:08 -80.91, 124.57 74.44 1.74 4
14 12/29/2022 18:52:06 80.92, -68.01 105.58 12/29/2022 18:51:49 80.92, -67.88 105.59 2.17 17
15 12/29/2022 19:43:11 -80.92, 99.35 74.42 12/29/2022 19:42:29 -80.92, 99.44 74.42 1.50 42



Historial Predications of SNOs between NOAA-19 and METOP-C
